SCP
0 0 0 0 0 0 0 0 0 0 0 0 0 0 0 0 0 0 0 0 0 0 0 0 0 0 0 0 0 0 0 0 0 0 0 0 0 0 0 0 0 0 0 0
0 0 0 0 0 0 0 0 0 0 0 0 0 0 0 0 0 0 0 0 0 0 0 0 0 0 0 0 0 0 0 0 0 0 0 0 0 0 0 0 0 0 0 0
0 0 0 0 0 0 0 0 0 0 0 0 0 0 0 0 0 0 0 0 0 0 0 0 0 0 0 0 0 0 0 0 0 0 0 0 0 0 0 0 0 0 0 0
0 0 0 0 0 0 0 0 0 0 0 0 0 0 0 0 0 0 0 0 0 0 0 0 0 0 0 0 0 0 0 0 0 0 0 0 0 0 0 0 0 0 0 0
0 0 0 0 0 0 0 0 0 0 0 0 0 0 0 0 0 0 0 0 0 0 0 0 0 0 0 0 0 0 0 0 0 0 0 0 0 0 0 0 0 0 0 0
0 0 0 0 0 0 0 0 0 0 0 0 0 0 0 0 0 0 0 0 0 0 0 0 0 0 0 0 0 0 0 0 0 0 0 0 0 0 0 0 0 0 0 0
0 0 0 0 0 0 0 0 0 0 0 0 0 0 0 0 0 0 0 0 0 0 0 0 0 0 0 0 0 0 0 0 0 0 0 0 0 0 0 0 0 0 0 0
0 0 0 0 0 0 0 0 0 0 0 0 0 0 0 0 0 0 0 0 0 0 0 0 0 0 0 0 0 0 0 0 0 0 0 0 0 0 0 0 0 0 0 0
0 0 0 0 0 0 0 0 0 0 0 0 0 0 0 0 0 0 0 0 0 0 0 0 0 0 0 0 0 0 0 0 0 0 0 0 0 0 0 0 0 0 0 0
0 0 0 0 0 0 0 0 0 0 0 0 0 0 0 0 0 0 0 0 0 0 0 0 0 0 0 0 0 0 0 0 0 0 0 0 0 0 0 0 0 0 0 0
0 0 0 0 0 0 0 0 0 0 0 0 0 0 0 0 0 0 0 0 0 0 0 0 0 0 0 0 0 0 0 0 0 0 0 0 0 0 0 0 0 0 0 0
0 0 0 0 0 0 0 0 0 0 0 0 0 0 0 0 0 0 0 0 0 0 0 0 0 0 0 0 0 0 0 0 0 0 0 0 0 0 0 0 0 0 0 0
0 0 0 0 0 0 0 0 0 0 0 0 0 0 0 0 0 0 0 0 0 0 0 0 0 0 0 0 0 0 0 0 0 0 0 0 0 0 0 0 0 0 0 0
0 0 0 0 0 0 0 0 0 0 0 0 0 0 0 0 0 0 0 0 0 0 0 0 0 0 0 0 0 0 0 0 0 0 0 0 0 0 0 0 0 0 0 0
0 0 0 0 0 0 0 0 0 0 0 0 0 0 0 0 0 0 0 0 0 0 0 0 0 0 0 0 0 0 0 0 0 0 0 0 0 0 0 0 0 0 0 0
0 0 0 0 0 0 0 0 0 0 0 0 0 0 0 0 0 0 0 0 0 0 0 0 0 0 0 0 0 0 0 0 0 0 0 0 0 0 0 0 0 0 0 0
0 0 0 0 0 0 0 0 0 0 0 0 0 0 0 0 0 0 0 0 0 0 0 0 0 0 0 0 0 0 0 0 0 0 0 0 0 0 0 0 0 0 0 0
0 0 0 0 0 0 0 0 0 0 0 0 0 0 0 0 0 0 0 0 0 0 0 0 0 0 0 0 0 0 0 0 0 0 0 0 0 0 0 0 0 0 0 0
0 0 0 0 0 0 0 0 0 0 0 0 0 0 0 0 0 0 0 0 0 0 0 0 0 0 0 0 0 0 0 0 0 0 0 0 0 0 0 0 0 0 0 0
-0 -0 0 0 0 0 0 0 0 0 0 0 0 0 0 0 0 0 0 0 0 0 0 0 0 0 0 0 0 0 0 0 0 0 0 0 0 0 0 0 0 0 0 0
-0 0 0 0 0 0 0 0 0 0 0 0 0 0 0 0 0 0 0 0 0 0 0 0 0 0 0 0 0 0 0 0 0 0 0 0 0 0 0 0 0 0 0 0
0 0 0 0 0 0 0 0 0 0 0 0 0 0 0 0 0 0 0 0 0 0 0 0 0 0 0 0 0 0 0 0 0 0 0 0 0 0 0 0 0 0 0 0
0 0 0 0 0 0 0 0 0 0 0 0 0 0 0 0 0 0 0 0 0 0 0 0 0 0 0 0 0 0 0 0 0 0 0 0 0 0 0 0 0 0 0 0
0 0 0 0 0 0 0 0 0 0 0 0 0 0 0 0 0 0 0 0 0 0 0 0 0 0 0 0 0 0 0 0 0 0 0 0 0 0 0 0 0 0 0 0
0 0 0 0 0 0 0 0 0 0 0 0 0 0 0 0 0 0 0 0 0 0 0 0 0 0 0 0 0 0 0 0 0 0 0 0 0 0 0 0 0 0 0 0
0 0 0 0 0 0 0 0 0 0 0 0 0 0 0 0 0 0 0 0 0 0 0 0 0 0 0 0 0 0 0 0 0 0 0 0 0 0 0 0 0 0 0 0
0 0 0 0 0 0 0 0 0 0 0 0 0 0 0 0 0 0 0 0 0 0 0 0 0 0 0 0 0 0 0 0 0 0 0 0 0 0 0 0 0 0 0 0
Wind_Speed
8 8 6 5 5 4 5 6 6 7 8 8 8 7 6 5 5 4 4 4 5 5 4 3 2 2 1 1 0 1 3 3 3 3 3 4 4 4 4 4 4 4 4 4
7 5 4 3 5 5 5 6 7 8 8 7 7 5 5 5 5 4 4 4 5 5 4 4 3 2 1 1 1 1 2 2 3 3 4 4 4 4 4 4 4 4 4 4
4 4 3 2 5 4 3 4 5 6 7 7 6 5 5 5 5 4 5 4 5 5 5 4 4 2 2 1 0 1 1 1 2 2 3 3 3 4 4 4 4 3 3 3
3 2 2 1 4 3 4 4 4 5 7 7 7 6 4 4 4 5 5 5 5 5 5 4 3 2 1 0 0 1 1 1 2 2 3 3 4 4 3 3 3 3 3 3
2 2 2 3 6 6 5 4 5 7 7 7 7 4 4 6 5 5 5 5 5 4 4 3 3 2 1 1 1 1 0 1 1 2 3 3 3 3 3 3 3 3 2 3
1 1 2 5 9 9 4 3 8 8 8 8 6 4 5 8 7 7 6 5 4 4 3 3 3 2 1 1 1 0 0 0 1 1 2 3 3 3 2 3 3 3 2 2
2 2 2 7 9 5 1 6 10 9 8 7 5 5 7 7 7 6 6 5 5 4 3 3 3 1 1 1 1 1 1 1 1 1 2 2 2 2 2 3 3 3 2 2
2 2 3 7 6 4 6 8 9 9 8 7 7 7 7 7 7 7 6 6 6 5 4 4 3 2 2 2 2 2 1 1 1 2 2 2 2 2 2 3 3 2 2 2
1 1 4 5 5 6 7 8 8 8 8 7 7 7 8 7 7 7 6 6 5 5 5 4 4 3 2 2 2 2 2 2 2 3 2 2 2 2 2 2 2 2 2 1
2 4 6 6 7 8 7 7 8 7 7 7 7 7 7 7 7 6 6 5 5 5 5 5 5 4 3 3 2 2 2 2 2 2 2 2 1 1 1 1 1 2 2 1
3 6 6 6 7 9 9 8 8 8 7 7 6 6 6 6 6 6 5 5 5 4 4 5 5 5 4 4 2 2 2 2 2 2 2 1 1 1 0 1 1 2 2 2
5 7 6 8 9 9 9 8 8 8 8 7 6 6 6 5 5 5 5 5 5 5 5 5 5 5 5 4 3 3 2 2 2 1 1 1 0 1 2 1 1 2 2 3
6 7 6 7 8 8 8 8 7 7 6 6 6 5 5 5 5 5 5 5 5 5 5 4 4 5 5 4 3 2 2 2 1 1 1 1 0 0 1 1 1 1 2 2
6 6 6 7 8 8 7 7 6 6 6 6 6 5 5 5 5 5 5 5 5 4 4 4 4 5 5 4 4 3 2 2 1 1 1 1 1 1 1 1 1 1 2 2
7 6 6 7 7 7 7 6 6 7 7 7 6 5 5 5 6 6 6 5 5 4 4 5 5 5 5 5 4 3 2 2 1 1 1 1 1 1 1 1 1 2 2 1
8 7 6 6 7 8 8 7 7 7 7 7 6 6 6 6 5 5 5 5 5 5 5 5 5 6 5 5 4 3 2 3 2 1 1 1 1 1 1 2 2 2 2 2
7 8 8 9 8 8 8 7 6 7 7 7 7 6 6 6 6 6 6 6 5 4 5 5 6 6 5 5 4 3 2 2 2 2 1 1 1 2 2 2 2 2 2 2
6 6 7 7 7 8 8 7 6 6 6 6 6 5 5 5 5 6 6 5 5 5 5 6 6 6 5 5 4 3 2 2 2 2 2 2 2 2 2 2 2 3 2 2
7 7 7 7 7 6 6 7 6 6 6 5 5 5 5 5 5 5 5 5 5 5 6 7 8 6 6 6 5 3 3 2 2 2 2 2 2 2 2 2 3 3 2 2
8 8 7 7 7 6 6 6 6 5 5 5 5 5 5 5 5 5 5 4 4 4 6 7 6 5 5 5 6 3 3 3 3 2 2 2 3 3 3 3 3 3 3 2
8 8 8 8 8 7 7 6 6 6 6 5 5 5 5 6 5 5 4 4 5 6 6 7 5 5 5 5 5 3 3 3 3 3 3 3 3 3 3 3 3 3 3 3
7 7 8 7 7 7 7 6 6 6 6 5 5 5 5 5 5 5 4 4 5 8 6 4 4 6 7 7 4 4 4 4 3 3 3 3 3 3 3 3 3 3 3 3
6 6 7 7 7 7 7 6 6 6 6 6 6 6 6 5 4 4 5 4 5 8 6 4 7 9 9 5 4 4 4 4 4 4 4 4 4 3 3 4 3 3 3 3
6 6 6 6 6 6 7 7 7 6 6 6 5 6 6 5 4 3 4 7 8 9 5 6 9 9 8 4 4 4 4 4 4 4 4 4 4 3 3 3 3 3 3 4
6 6 6 6 6 5 6 7 7 6 6 5 6 6 5 4 4 5 5 6 8 8 5 6 8 8 5 4 4 4 4 4 4 4 4 4 4 4 3 3 3 3 3 3
5 5 5 5 5 5 5 5 5 5 6 6 6 5 5 5 5 5 5 5 7 7 6 4 5 5 4 4 4 4 4 5 5 4 4 4 4 4 4 4 4 4 3 3
5 4 4 4 4 4 5 5 5 6 6 6 7 6 6 6 5 5 6 5 5 5 4 4 4 4 4 4 4 4 4 4 4 4 4 4 4 4 4 4 4 3 3 3
Wind_Direction
279 291 290 284 285 269 251 258 263 281 287 301 312 318 326 335 343 347 353 0 352 346 345 345 353 357 354 356 79 181 178 174 179 180 176 175 173 173 175 175 177 179 179 183
274 274 278 298 315 285 271 275 274 285 289 317 318 325 333 339 342 339 343 345 341 338 338 337 340 339 335 335 348 179 177 177 172 171 172 172 170 167 166 169 173 172 177 179
278 300 281 312 323 295 290 294 275 280 293 316 317 321 326 328 325 325 328 330 329 330 328 322 316 319 312 307 306 171 169 170 163 166 166 167 164 166 170 169 166 164 167 174
283 294 243 9 359 319 300 314 316 307 314 318 319 321 326 332 326 323 324 321 323 326 326 324 317 319 318 327 178 153 152 160 165 171 171 166 165 168 168 168 167 165 167 176
264 283 295 334 348 328 294 303 339 319 322 333 340 340 354 357 343 328 324 320 321 325 323 321 321 328 7 59 86 97 110 170 184 181 175 169 170 172 170 165 163 161 162 169
284 277 307 341 335 325 291 317 349 331 326 335 343 336 339 347 343 338 334 333 335 337 340 336 333 341 55 74 75 45 338 303 179 180 174 170 171 171 166 162 157 152 152 169
294 273 306 343 337 337 351 334 337 334 333 339 338 327 326 334 341 342 345 350 349 351 354 348 345 4 60 47 14 345 356 26 93 134 146 151 152 158 158 153 148 147 149 163
275 272 308 351 358 359 329 326 331 335 339 340 337 340 341 344 346 348 356 360 358 359 0 2 7 35 50 23 6 20 46 64 83 94 102 120 133 139 147 149 148 150 152 153
287 305 338 337 332 327 326 326 333 336 338 340 339 342 345 347 348 351 356 0 1 2 3 9 14 30 41 13 23 51 67 71 80 85 87 103 125 133 136 149 156 161 168 178
292 304 320 329 331 333 332 330 333 336 337 340 338 339 343 344 346 349 354 358 1 7 12 10 11 19 24 19 35 65 72 69 74 84 81 80 87 119 146 166 168 173 184 196
297 313 319 331 336 333 334 336 339 340 338 337 337 339 339 339 341 342 349 355 0 4 5 5 8 16 16 14 30 55 59 53 57 65 75 71 53 25 302 247 232 221 215 215
301 317 309 315 328 332 332 334 336 337 338 341 342 337 338 337 338 339 346 353 357 0 4 4 10 14 11 10 23 36 38 30 29 35 33 28 51 44 28 340 325 289 264 253
294 307 307 311 324 333 332 334 337 337 336 337 341 341 343 344 347 348 352 355 353 354 357 2 9 10 5 4 7 15 16 1 355 3 348 324 305 295 349 22 13 319 290 276
317 315 313 326 327 333 334 335 338 341 343 342 342 345 347 347 349 350 348 344 345 351 357 1 7 4 356 352 351 349 348 345 327 312 302 293 285 280 276 288 300 307 306 286
336 329 314 319 327 335 337 340 344 346 346 346 347 347 348 348 347 344 343 343 347 356 360 1 1 354 348 346 345 341 334 323 315 308 303 298 294 290 279 273 280 292 303 296
327 331 331 334 334 336 339 341 340 336 337 337 339 342 342 342 341 343 347 349 352 352 351 353 350 343 341 342 341 337 329 335 328 311 300 292 284 273 271 273 278 281 285 295
329 333 335 334 333 331 331 329 326 323 326 329 330 333 338 342 345 348 350 350 348 346 348 348 341 339 339 339 335 327 323 321 325 306 287 278 270 267 266 261 262 269 277 285
319 315 316 316 316 320 324 328 327 326 325 323 324 330 337 341 339 337 339 343 349 353 355 349 343 340 339 337 333 324 319 311 306 298 290 278 274 272 269 265 264 269 279 278
337 330 326 325 325 324 323 326 327 326 324 326 330 332 332 332 331 331 334 341 346 345 343 342 342 342 337 337 335 320 316 309 302 298 291 283 278 273 270 269 270 271 274 276
342 339 339 340 341 339 333 332 333 333 334 336 335 334 334 333 333 332 333 331 334 329 326 331 334 332 330 329 332 322 319 311 303 297 293 285 279 277 272 269 269 273 273 270
342 344 346 345 344 345 346 343 342 338 337 338 334 329 326 325 328 328 327 325 332 334 330 329 329 327 326 329 327 322 320 314 306 297 289 285 283 280 276 274 272 269 269 269
340 341 341 342 343 344 346 346 344 340 339 339 335 330 326 326 329 325 317 310 320 327 327 320 321 325 328 327 320 318 315 312 307 302 295 290 286 284 282 283 279 276 272 269
334 336 338 340 340 337 340 346 347 343 339 335 332 330 327 320 317 314 316 319 320 320 321 313 318 323 325 323 316 313 310 307 303 298 295 292 289 286 284 283 281 278 276 273
334 336 337 337 338 341 343 345 344 340 335 329 328 326 323 319 315 310 304 310 316 317 313 312 319 322 325 319 311 305 302 300 296 295 295 293 290 286 282 280 279 278 276 276
330 330 334 339 343 340 336 335 337 339 339 335 333 331 326 317 309 312 312 309 313 316 312 313 319 323 321 308 303 299 296 293 295 294 289 289 288 287 284 283 280 278 275 271
328 329 330 330 327 326 328 331 333 334 333 331 330 330 329 324 316 313 312 311 311 313 314 311 311 313 309 305 301 298 295 295 295 292 289 287 285 283 282 282 283 278 276 273
325 326 326 329 333 333 329 327 327 328 328 324 322 325 327 325 322 321 319 315 315 315 312 310 310 307 305 304 302 299 295 292 289 288 286 283 280 278 278 278 278 278 277 274